English version Home page |
Updated on February 10, 2013 |
|
軌道要素Epoch 2011 Nov. 15.0 TT = JDT 2455880.5 T 2011 Nov. 24.11259 TT MPC q 2.0394629 (2000.0) P Q n 0.15229261 Peri. 230.99847 +0.94983656 -0.30919931 a 3.4728297 Node 146.93572 +0.30691031 +0.89265826 e 0.4127374 Incl. 4.93895 +0.06013798 +0.32795887 P 6.47 From 319 observations 1998 Sept. 14-2012 Feb. 23, mean residual 0".5.
|
光度変化m1 = 12.0 + 5 logΔ + 15.0 log r
|
軌道要素はM.P.E.C. 2012-W54に掲載されたものです。
|